Regional Weather Roundup
Issued by NWS

Home | Current Version | Previous Version | Graphics & Text | Print | Product List | Glossary On
Versions: 1 2 3 4 5 6 7 8 9 10 11 12 13 14 15 16 17 18 19 20 21 22 23 24 25 26 27 28 29 30 31 32 33 34 35 36 37 38 39 40 41 42 43 44 45 46 47 48 49 50
000
ASUS43 KLMK 222210
RWRKY
KENTUCKY REGIONAL WEATHER ROUNDUP
NATIONAL WEATHER SERVICE LOUISVILLE KY
500 PM EST WED FEB 22 2017

NOTE "FAIR" INDICATES FEW OR NO CLOUDS BELOW 12,000 FEET
WITH NO SIGNIFICANT WEATHER AND/OR OBSTRUCTIONS TO VISIBILITY.

KYZ001>023-026-027-061>063-070>075-222300-
WESTERN AND SOUTH CENTRAL KENTUCKY

CITY           SKY/WX    TMP DP  RH WIND       PRES   REMARKS
PADUCAH        MOSUNNY   70  56  61 SW6       29.78F
HENDERSON      PTSUNNY   72  55  56 SW10      29.78S
OWENSBORO      MOSUNNY   69  57  65 S7        29.80S
HOPKINSVILLE   CLOUDY    72  56  57 S6        29.80S
BOWLING GREEN  PTSUNNY   70  56  61 S12       29.83R
GLASGOW        CLOUDY    69  56  63 SW8       29.83S
$$

KYZ024-025-028>034-038-045-046-053-222300-
NORTH CENTRAL KENTUCKY

CITY           SKY/WX    TMP DP  RH WIND       PRES   REMARKS
LOUISVILLE/SDF PTSUNNY   70  54  56 S13       29.80S
LOUISVILLE/LOU PTSUNNY   70  56  61 S9G16     29.80F
FORT KNOX      CLOUDY    67  57  69 S9        29.80S
$$

KYZ035>037-039>044-047>052-055>060-089>105-222300-
NORTHEAST KENTUCKY

CITY           SKY/WX    TMP DP  RH WIND       PRES   REMARKS
LEXINGTON      CLOUDY    67  55  65 S8        29.83F
COVINGTON      CLOUDY    65  57  75 S6        29.80F
FRANKFORT      PTSUNNY   69  55  60 S9        29.80F
$$

KYZ054-064>069-076>088-106>120-222300-
SOUTHEAST KENTUCKY

CITY           SKY/WX    TMP DP  RH WIND       PRES   REMARKS
JACKSON        CLOUDY    60  55  83 VRB3      29.87F
LONDON         CLOUDY    63  54  72 S5        29.87F
SOMERSET       MOSUNNY   64  54  68 S6        29.87F
MIDDLESBORO    CLOUDY    59  55  86 CALM      29.91R
MONTICELLO     PTCLDY    67  57  70 E8        29.87S
$$





USA.gov is the U.S. government's official web portal to all federal, state and local government web resources and services.